Location: Boiro
(42.6475°N, 8.8834°W)
Time: 21:07:34
(UTC+01:00)

Vanguard 3 - Pass Details

Date: 02 December 2021
Orbit: 508 x 3260 km, 33.3° (Epoch: 17 January)

Event Time Altitude Azimuth Distance (km) Brightness Sun altitude
Rises 09:58:49 0° 273° (W) 6,947 11.4 9.8°
Reaches altitude 10° 10:04:08 10° 268° (W) 5,644 11.1 10.5°
Maximum altitude 10:18:43 46° 204° (SSW) 2,534 10.1 12.4°
Drops below altitude 10° 10:27:28 10° 134° (SE) 3,454 13.5 13.5°
Sets 10:29:56 0° 128° (SE) 4,128 12.6 13.8°
